Time,TemperatureF,DewpointF,PressureIn,WindDirection,WindDirectionDegrees,WindSpeedMPH,WindSpeedGustMPH,Humidity,HourlyPrecipIn,Conditions,Clouds,dailyrainin,SoftwareType,DateUTC
2013-11-28 00:21:00,43.0,43.0,-100.00,NE,45,1.0,2.0,101,-99.99,,,-99.99,,2013-11-28 08:21:00,
2013-11-28 00:42:00,44.0,44.0,-100.00,NE,45,1.0,3.0,101,-99.99,,,-99.99,,2013-11-28 08:42:00,
2013-11-28 00:53:00,44.0,44.0,-100.00,NE,45,0.0,1.0,101,-99.99,,,-99.99,,2013-11-28 08:53:00,
2013-11-28 01:02:00,44.0,44.0,-100.00,NE,45,0.0,1.0,101,-99.99,,,-99.99,,2013-11-28 09:02:00,
2013-11-28 01:21:00,42.0,42.0,-100.00,NE,45,0.0,1.0,101,-99.99,,,-99.99,,2013-11-28 09:21:00,
2013-11-28 01:43:00,42.0,42.0,-100.00,North,0,0.0,1.0,101,-99.99,,,-99.99,,2013-11-28 09:43:00,
2013-11-28 04:21:00,40.0,40.0,-100.00,North,0,1.0,1.0,101,-99.99,,,-99.99,,2013-11-28 12:21:00,
2013-11-28 04:42:00,40.0,40.0,-100.00,North,0,1.0,1.0,101,-99.99,,,-99.99,,2013-11-28 12:42:00,
2013-11-28 05:21:00,40.0,40.0,-100.00,North,0,1.0,1.0,101,-99.99,,,-99.99,,2013-11-28 13:21:00,
2013-11-28 05:42:00,40.0,40.0,-100.00,NE,45,1.0,2.0,101,-99.99,,,-99.99,,2013-11-28 13:42:00,
2013-11-28 06:22:00,40.0,40.0,-100.00,NE,45,0.0,1.0,101,-99.99,,,-99.99,,2013-11-28 14:22:00,
2013-11-28 06:42:00,40.0,40.0,-100.00,North,0,1.0,1.0,101,-99.99,,,-99.99,,2013-11-28 14:42:00,
2013-11-28 07:21:00,40.0,40.0,-100.00,North,0,1.0,1.0,101,-99.99,,,-99.99,,2013-11-28 15:21:00,
2013-11-28 07:33:00,40.0,40.0,-100.00,North,0,1.0,1.0,101,-99.99,,,-99.99,,2013-11-28 15:33:00,
2013-11-28 07:54:00,39.0,39.0,-100.00,North,0,1.0,1.0,101,-99.99,,,-99.99,,2013-11-28 15:54:00,
2013-11-28 08:03:00,39.0,39.0,-100.00,North,0,1.0,1.0,101,-99.99,,,-99.99,,2013-11-28 16:03:00,
2013-11-28 08:23:00,39.0,39.0,-100.00,NE,45,0.0,2.0,101,-99.99,,,-99.99,,2013-11-28 16:23:00,
2013-11-28 08:43:00,40.0,40.0,-100.00,NE,45,1.0,2.0,101,-99.99,,,-99.99,,2013-11-28 16:43:00,
2013-11-28 09:42:00,42.0,42.0,-100.00,North,-999,0.0,0.0,101,-99.99,,,-99.99,,2013-11-28 17:42:00,
2013-11-28 10:21:00,47.0,47.0,-100.00,North,-999,0.0,0.0,101,-99.99,,,-99.99,,2013-11-28 18:21:00,
2013-11-28 10:32:00,47.0,47.0,-100.00,North,-999,0.0,0.0,101,-99.99,,,-99.99,,2013-11-28 18:32:00,
2013-11-28 11:22:00,52.0,52.0,-100.00,South,180,2.0,3.0,101,-99.99,,,-99.99,,2013-11-28 19:22:00,
2013-11-28 11:32:00,52.0,52.0,-100.00,South,180,2.0,3.0,101,-99.99,,,-99.99,,2013-11-28 19:32:00,
2013-11-28 17:52:00,48.0,48.0,-100.00,North,0,1.0,1.0,101,-99.99,,,-99.99,,2013-11-29 01:52:00,
2013-11-28 18:01:00,48.0,48.0,-100.00,North,0,1.0,1.0,101,-99.99,,,-99.99,,2013-11-29 02:01:00,
2013-11-28 18:21:00,48.0,48.0,-100.00,North,0,1.0,1.0,101,-99.99,,,-99.99,,2013-11-29 02:21:00,
2013-11-28 18:32:00,48.0,48.0,-100.00,North,0,1.0,1.0,101,-99.99,,,-99.99,,2013-11-29 02:32:00,
2013-11-28 18:52:00,47.0,47.0,-100.00,North,0,1.0,1.0,101,-99.99,,,-99.99,,2013-11-29 02:52:00,
2013-11-28 19:01:00,47.0,47.0,-100.00,North,0,1.0,1.0,101,-99.99,,,-99.99,,2013-11-29 03:01:00,
2013-11-28 20:23:00,47.0,47.0,-100.00,North,0,1.0,3.0,101,-99.99,,,-99.99,,2013-11-29 04:23:00,
2013-11-28 20:42:00,48.0,48.0,-100.00,North,0,1.0,6.0,101,-99.99,,,-99.99,,2013-11-29 04:42:00,
2013-11-28 20:52:00,47.0,47.0,-100.00,North,0,1.0,2.0,101,-99.99,,,-99.99,,2013-11-29 04:52:00,
2013-11-28 21:02:00,47.0,47.0,-100.00,North,0,1.0,2.0,101,-99.99,,,-99.99,,2013-11-29 05:02:00,
2013-11-28 21:42:00,46.0,46.0,-100.00,North,0,1.0,1.0,101,-99.99,,,-99.99,,2013-11-29 05:42:00,
2013-11-28 22:42:00,46.0,46.0,-100.00,NE,45,0.0,1.0,101,-99.99,,,-99.99,,2013-11-29 06:42:00,